Regional Weather Roundup
Issued by NWS Albany, NY

Home | Current Version | Previous Version | Text Only | Print | Product List | Glossary On
Versions: 1 2 3 4 5 6 7 8 9 10 11 12 13 14 15 16 17 18 19 20 21 22 23 24 25 26 27 28 29 30 31 32 33 34 35 36 37 38 39 40 41 42 43 44 45 46 47 48 49 50
000
ASUS41 KALY 101810
RWRALY

NEW YORK STATE HOURLY WEATHER ROUNDUP
NATIONAL WEATHER SERVICE ALBANY NY
100 PM EST SAT DEC 10 2016

NOTE: "FAIR" INDICATES FEW OR NO CLOUDS BELOW 12,000 FEET WITH NO
SIGNIFICANT WEATHER AND/OR NO OBSTRUCTIONS TO VISIBILITY.

NYZ032-033-038>043-046>054-057>066-NYZ062>081-082-084-101900-
EAST


CITY           SKY/WX    TMP DP  RH WIND       PRES   REMARKS
ALBANY         MOSUNNY   26   9  48 NW14      30.33F WCI  14
GLENS FALLS    MOSUNNY   28   5  37 N8        30.30F WCI  20
POUGHKEEPSIE   MOSUNNY   31  13  47 W8        30.32F WCI  23
NEWBURGH       PTSUNNY   30  18  59 NW14      30.32F WCI  20
MONTGOMERY     PTSUNNY   31  15  52 NW12      30.31F WCI  22
WHITE PLAINS   PTSUNNY   32  15  49 W12       30.31F WCI  23
ISLIP          PTSUNNY   35  14  42 W17G25    30.32F WCI  25
NEW YORK CITY  CLOUDY    36  18  48 W10       30.34F WCI  28
CENTRAL PARK   CLOUDY    35  17  47 VRB3      30.35F
$$

NYZ005>009-017-018-044>046-055-056-101900-
CENTRAL


CITY           SKY/WX    TMP DP  RH WIND       PRES   REMARKS
FULTON         LGT SNOW  27  21  78 CALM      30.31F
SYRACUSE       LGT SNOW  26  21  81 N3        30.32F
ROME           CLOUDY    23  15  71 CALM      30.34F
ELMIRA         LGT SNOW  28  20  71 W8        30.29F WCI  20
BINGHAMTON     LGT SNOW  23  18  81 CALM      30.24F
MONTICELLO     PTSUNNY   25  19  80 W6        30.27S WCI  18
$$

NYZ026>034-041>043-087-101900-
NORTH


CITY           SKY/WX    TMP DP  RH WIND       PRES   REMARKS
WATERTOWN      MOSUNNY   24  15  68 CALM      30.32F
FORT DRUM      NOT AVBL
OGDENSBURG     FAIR      24  12  60 NW7       30.32F WCI  16
MASSENA        PTSUNNY   22   8  55 W8        30.33F WCI  12
SARANAC LAKE   PTSUNNY   15   4  61 SW7       30.19S WCI   5
PLATTSBURGH    CLOUDY    24   6  46 NW5       30.31F WCI  18
$$

NYZ001>004-010>016-019>021-085-101900-
WEST


CITY           SKY/WX    TMP DP  RH WIND       PRES   REMARKS
NIAGARA FALLS  CLOUDY    31  17  56 W18       30.32F WCI  19
BUFFALO        FLURRIES  30  16  56 W14       30.31F WCI  19
DUNKIRK        CLOUDY    29  14  53 W20G29    30.34F WCI  16
JAMESTOWN      CLOUDY    21  18  86 SW9       30.28S WCI  11
WELLSVILLE     FLURRIES  25  15  66 W12G20    30.24F WCI  14
ROCHESTER      CLOUDY    28  19  69 SW3       30.32F
PENN YAN       LGT SNOW  26  20  77 CALM      30.29F VSB 3/4
$$

             KEY
       WCI = WIND CHILL INDEX
       VSB = VISIBILITY
       HX  = HEAT INDEX
$$



USA.gov is the U.S. government's official web portal to all federal, state and local government web resources and services.